TimeEDT,TemperatureF,Dew PointF,Humidity,Sea Level PressureIn,VisibilityMPH,Wind Direction,Wind SpeedMPH,Gust SpeedMPH,PrecipitationIn,Events,Conditions,WindDirDegrees,DateUTC
12:52 AM,46.9,39.9,77,29.98,10.0,WSW,10.4,-,N/A,,Mostly Cloudy,240,2012-10-21 04:52:00
1:52 AM,46.9,39.9,77,29.98,10.0,WSW,6.9,-,N/A,,Overcast,240,2012-10-21 05:52:00
2:52 AM,46.4,39.2,76,30.00,10.0,WSW,5.8,-,N/A,,Overcast,250,2012-10-21 06:52:00
3:52 AM,46.9,39.9,77,30.02,10.0,WSW,5.8,-,N/A,,Overcast,240,2012-10-21 07:52:00
4:52 AM,46.9,39.9,77,30.04,10.0,WSW,6.9,-,N/A,,Overcast,250,2012-10-21 08:52:00
5:52 AM,46.4,39.2,76,30.05,10.0,WSW,9.2,-,N/A,,Overcast,240,2012-10-21 09:52:00
6:52 AM,46.0,39.9,79,30.08,10.0,WSW,6.9,-,N/A,,Overcast,250,2012-10-21 10:52:00
7:52 AM,43.0,39.0,86,30.10,10.0,WSW,5.8,-,N/A,,Partly Cloudy,240,2012-10-21 11:52:00
8:52 AM,45.0,39.9,82,30.11,10.0,SW,5.8,-,N/A,,Clear,230,2012-10-21 12:52:00
9:52 AM,50.0,41.0,71,30.13,10.0,West,8.1,-,N/A,,Clear,260,2012-10-21 13:52:00
10:52 AM,53.6,42.8,67,30.13,10.0,West,8.1,-,N/A,,Clear,260,2012-10-21 14:52:00
11:52 AM,55.0,39.9,57,30.14,10.0,SW,3.5,-,N/A,,Scattered Clouds,230,2012-10-21 15:52:00
12:52 PM,57.2,37.4,48,30.13,10.0,WSW,10.4,16.1,N/A,,Overcast,240,2012-10-21 16:52:00
1:52 PM,57.9,39.0,49,30.12,10.0,West,6.9,-,N/A,,Clear,260,2012-10-21 17:52:00
2:52 PM,57.9,39.9,51,30.11,10.0,SW,9.2,-,N/A,,Partly Cloudy,220,2012-10-21 18:52:00
3:52 PM,59.0,39.0,48,30.11,10.0,Variable,5.8,-,N/A,,Clear,0,2012-10-21 19:52:00
4:52 PM,57.9,39.0,49,30.10,10.0,South,4.6,-,N/A,,Clear,190,2012-10-21 20:52:00
5:52 PM,57.0,39.0,51,30.10,10.0,SSW,6.9,-,N/A,,Clear,210,2012-10-21 21:52:00
6:52 PM,51.1,39.0,63,30.12,10.0,SSW,4.6,-,N/A,,Clear,200,2012-10-21 22:52:00
7:52 PM,48.9,39.0,69,30.13,10.0,South,5.8,-,N/A,,Clear,170,2012-10-21 23:52:00
8:52 PM,46.9,39.0,74,30.13,10.0,SSE,5.8,-,N/A,,Clear,150,2012-10-22 00:52:00
9:52 PM,44.1,39.0,82,30.14,10.0,South,4.6,-,N/A,,Clear,170,2012-10-22 01:52:00
10:52 PM,44.1,39.0,82,30.14,10.0,South,4.6,-,N/A,,Clear,170,2012-10-22 02:52:00
11:52 PM,44.1,39.0,82,30.14,10.0,South,5.8,-,N/A,,Clear,180,2012-10-22 03:52:00